Location: St. Louis
(38.6270°N, 90.1994°W)
Time: 00:51:05
(UTC-06:00)

Vanguard 2 - Pass Details

Date: 05 December 2021
Orbit: 553 x 2936 km, 32.9° (Epoch: 16 January)

Event Time Altitude Azimuth Distance (km) Brightness Sun altitude
Rises 12:14:21 0° 229° (SW) 2,712 11.0 28.7°
Reaches altitude 10° 12:16:41 10° 215° (SW) 1,869 10.7 28.6°
Maximum altitude 12:20:08 26° 157° (SSE) 1,269 10.0 28.5°
Drops below altitude 10° 12:24:27 10° 101° (ESE) 2,367 10.2 28.4°
Sets 12:27:49 0° 90° (E) 3,631 10.9 28.3°
